Temp
14 14 14 14 13 13 13 14 14 14 14 15 15 16 17 18 19 19 19 21 21 21 20 21 22 22 22 21 22 19 18 19 23 23 24 27 26 25 24 24 23 21 20 19 17
14 14 14 14 13 13 13 13 13 14 14 15 15 16 17 18 18 16 21 22 21 21 20 20 19 19 19 22 21 19 18 20 22 24 25 24 26 25 24 23 21 19 18 18 17
14 14 14 14 14 13 13 13 13 13 14 14 15 16 17 18 16 20 21 21 21 21 20 20 20 20 22 22 22 20 20 21 24 24 24 25 26 24 21 22 21 19 17 16 15
14 14 14 14 14 14 14 14 13 13 14 14 14 15 16 17 18 21 21 21 21 21 20 20 19 21 21 21 21 22 22 22 24 24 24 25 24 23 23 23 20 18 16 15 14
14 14 14 14 13 13 13 13 13 14 13 13 14 14 16 15 16 21 20 20 21 20 20 19 20 20 20 20 21 21 23 23 23 23 24 23 24 24 20 18 17 17 16 14 13
14 14 14 13 13 13 13 13 12 13 13 13 13 14 14 14 19 20 20 20 20 20 20 20 20 20 19 20 21 21 21 22 23 23 23 23 23 24 19 16 16 16 14 14 13
13 13 13 13 13 13 12 11 11 11 12 12 12 12 12 15 19 20 19 19 19 19 19 20 20 20 19 20 20 21 21 22 22 23 23 23 22 22 18 16 15 15 14 12 12
13 12 11 12 11 11 11 10 11 12 12 11 11 11 11 17 17 18 19 18 19 20 19 21 21 20 20 20 19 21 21 20 22 22 22 22 20 21 17 17 14 13 13 12 11
10 10 11 11 11 10 10 10 10 11 12 11 11 11 12 16 16 19 19 17 20 20 20 20 21 19 20 18 17 18 17 18 21 21 21 20 21 21 17 18 14 13 12 11 10
10 10 12 13 12 11 11 11 10 11 11 10 10 11 13 17 18 19 20 18 19 19 19 19 15 15 15 15 17 18 17 18 19 22 19 19 18 20 18 17 15 12 11 10 10
10 9 10 10 10 10 10 10 10 10 10 13 13 13 16 18 18 19 19 19 19 18 16 17 15 14 17 17 18 19 18 18 19 20 21 19 19 20 17 17 14 12 11 11 11
9 9 9 9 9 9 9 9 10 10 11 12 13 13 15 16 15 16 19 18 16 15 16 16 14 16 18 17 17 17 17 17 18 20 19 18 18 18 16 16 14 13 12 11 10
9 8 8 8 8 8 9 9 10 10 10 11 13 13 14 14 14 15 16 16 16 15 15 15 16 17 17 17 17 16 17 18 19 20 20 19 18 19 19 17 15 15 13 12 11
9 8 8 7 7 7 8 10 10 11 10 12 12 13 14 14 14 16 17 17 16 16 15 15 17 17 17 16 17 16 18 18 19 18 16 18 18 18 18 18 15 14 13 12 11
8 8 8 8 8 7 9 10 10 10 11 16 14 15 15 15 16 15 17 16 15 15 15 15 17 16 16 17 18 17 19 18 18 17 17 18 16 18 18 18 15 14 13 12 11
8 8 7 7 8 9 9 10 11 8 9 15 16 14 14 15 17 16 15 17 16 17 16 16 18 17 16 18 18 19 18 17 16 15 14 18 17 21 18 20 18 14 13 12 10
8 8 7 8 8 9 10 9 8 7 14 15 16 16 15 15 15 17 15 14 15 14 14 16 16 17 18 17 18 17 16 13 14 13 16 18 18 21 20 20 19 14 13 12 9
8 8 7 8 8 9 9 7 7 11 11 15 16 16 15 16 15 16 15 13 15 15 14 14 14 16 17 17 17 17 18 15 16 14 17 17 16 19 19 19 19 15 13 11 9
7 7 7 7 8 8 7 8 9 10 13 13 15 15 15 16 16 16 15 14 14 15 15 14 15 18 18 19 19 18 16 18 17 14 13 14 16 18 16 17 16 13 12 9 8
6 6 6 7 7 7 7 8 8 10 12 12 12 13 12 12 15 15 15 16 16 16 17 16 14 17 18 19 19 18 19 17 14 13 14 17 15 16 15 15 13 12 10 9 8
6 1 5 6 7 6 7 7 7 10 10 10 11 11 12 12 12 13 14 15 13 13 14 15 15 15 16 17 18 17 17 17 17 17 16 16 16 13 15 13 12 12 10 8 7
1 -0 4 5 6 4 6 7 9 9 11 11 11 11 11 11 11 12 13 11 11 12 11 11 12 13 15 17 18 17 17 18 15 16 14 17 17 17 15 14 13 11 10 7 7
-1 -2 4 5 5 5 5 7 7 8 10 10 10 11 11 10 11 11 11 10 11 10 10 10 10 11 14 16 17 16 17 17 16 15 16 15 16 15 14 13 12 9 8 8 7
-2 -1 -1 4 2 2 4 5 6 7 7 9 8 8 9 9 10 10 10 10 10 10 9 9 9 10 11 10 9 12 12 12 14 14 14 15 17 15 14 13 11 9 8 7 7
-3 -3 1 -0 2 4 4 5 5 6 8 8 8 7 8 8 9 9 10 10 9 9 9 8 9 9 9 9 9 9 9 11 10 14 15 14 16 15 13 12 11 9 8 8 8
-2 -2 -0 0 3 2 4 5 4 5 6 6 8 8 8 7 8 8 9 9 8 9 8 7 9 8 9 9 9 9 10 10 10 10 11 11 11 13 14 13 12 11 9 9 8
1 1 -0 -0 1 1 2 3 4 6 6 7 7 6 7 8 8 9 9 10 10 8 8 8 8 9 9 9 8 9 10 11 10 8 9 9 10 10 10 12 13 12 10 9 9
Height
821 822 822 822 823 823 822 821 820 819 818 816 814 812 808 803 797 792 790 790 788 784 781 780 777 778 777 777 778 783 810 816 797 793 783 764 769 766 764 772 775 778 779 787 795
818 819 820 820 821 821 821 820 819 819 818 815 813 811 806 802 796 791 789 788 788 784 782 780 780 778 782 779 781 792 809 801 783 775 775 770 766 767 772 776 787 788 791 795 797
815 816 817 818 818 819 819 819 818 818 817 815 813 809 807 802 799 792 790 788 787 785 785 782 782 781 783 781 780 787 800 786 775 771 768 769 767 768 778 784 778 785 792 797 798
812 813 814 816 815 816 817 817 815 817 816 815 813 809 806 804 812 790 789 788 787 786 785 784 782 785 785 787 782 787 779 779 771 768 770 769 767 774 771 774 775 782 790 796 798
808 809 811 812 813 814 813 813 813 814 814 813 812 810 808 807 799 789 788 787 787 786 786 787 786 787 789 788 785 785 777 773 769 769 768 768 770 771 780 779 779 785 790 794 798
803 805 806 807 808 810 810 810 810 812 812 811 811 811 811 811 790 787 786 786 786 787 785 787 787 786 789 786 787 781 779 773 771 771 769 773 773 770 784 781 785 789 793 795 797
798 799 800 802 804 805 807 807 807 810 810 809 809 810 810 800 787 786 785 784 786 784 785 785 786 787 785 786 781 778 783 776 772 771 772 769 779 779 779 783 787 791 793 796 797
790 794 797 797 800 803 803 805 804 805 807 808 808 809 803 786 784 780 779 779 782 783 784 783 783 785 785 782 785 785 784 792 772 771 770 773 790 774 777 780 792 794 793 796 798
794 794 793 799 800 801 802 801 803 804 803 805 807 808 797 783 780 775 775 778 779 778 781 783 782 785 784 795 804 795 802 794 780 768 771 778 779 769 775 777 787 791 794 797 800
793 797 793 793 800 802 804 801 802 801 801 803 806 810 789 780 776 774 773 776 779 778 779 783 790 795 797 803 803 797 800 793 786 771 775 779 780 768 771 773 777 787 793 796 798
790 795 794 796 796 799 803 803 804 801 799 788 789 787 780 775 775 773 773 776 779 780 789 785 797 799 780 781 783 784 787 788 780 768 771 777 776 766 770 773 783 787 788 792 793
789 793 793 797 798 799 802 799 797 798 792 782 782 781 775 775 780 772 772 778 783 790 787 788 793 781 778 782 785 787 790 788 779 768 772 774 772 763 765 764 765 772 782 786 791
790 790 795 795 798 798 800 800 799 797 797 778 772 771 768 768 768 765 766 768 777 784 788 785 776 768 779 784 787 785 785 781 777 770 764 769 769 761 754 760 765 768 769 776 777
789 788 792 795 804 798 799 800 796 799 805 771 769 757 756 761 759 748 755 761 771 776 782 780 767 770 779 783 783 782 769 772 774 780 791 766 770 757 753 751 759 762 768 772 777
786 788 790 796 796 798 798 798 797 801 805 753 755 750 751 755 749 747 751 756 762 768 774 768 765 772 774 771 769 770 761 768 772 775 777 768 786 749 745 748 756 756 762 766 771
783 785 790 797 796 797 797 799 798 814 811 755 748 753 758 753 748 748 756 756 755 761 764 765 757 760 765 760 762 757 765 768 774 779 791 762 775 723 742 729 737 747 752 758 766
780 782 788 792 794 796 797 799 811 822 763 756 750 747 753 754 753 746 758 764 762 772 765 758 755 755 754 763 757 762 770 798 790 794 760 748 763 708 718 718 719 734 743 752 764
777 780 784 789 791 795 798 805 817 772 771 756 754 750 754 751 751 749 755 767 759 758 762 763 763 747 738 745 751 751 754 769 770 778 753 749 751 723 714 710 713 725 734 748 758
780 781 783 787 791 795 800 799 788 776 763 765 757 757 754 750 752 750 754 757 756 755 762 763 751 728 725 723 738 741 753 741 752 762 773 756 735 717 719 716 719 726 735 745 753
780 784 786 786 792 794 797 790 787 776 772 769 770 764 767 765 756 755 752 745 749 747 748 751 756 730 724 723 722 728 727 749 758 771 767 738 744 730 726 724 725 731 736 744 751
780 789 788 788 792 796 790 790 786 779 778 778 774 776 771 771 767 760 754 749 756 756 753 749 754 734 734 727 722 731 730 731 730 733 742 741 730 722 716 721 723 722 731 741 749
781 801 789 790 794 797 789 788 782 779 776 778 774 773 776 774 776 765 758 764 766 765 765 767 758 746 732 722 717 723 723 722 734 734 738 724 715 703 705 709 712 720 732 744 749
791 798 791 791 794 794 794 788 786 782 779 782 778 774 773 777 777 769 767 771 769 773 773 769 766 759 730 724 718 724 718 721 724 727 720 728 719 707 706 712 715 726 734 743 751
792 805 799 794 797 801 798 793 788 781 783 780 785 784 780 781 773 772 770 769 772 776 776 774 769 763 756 764 763 743 737 735 726 726 727 721 708 709 709 715 720 726 733 742 749
791 804 794 808 799 795 796 794 789 786 780 779 780 782 781 781 777 773 770 770 771 770 769 774 772 772 765 766 766 762 756 742 738 718 713 719 713 710 711 716 722 728 735 740 746
794 798 797 798 793 798 796 788 788 789 789 783 778 775 779 781 772 771 767 770 770 767 772 776 768 773 767 759 758 756 742 743 736 734 726 732 725 718 711 710 716 723 727 733 736
787 788 792 797 794 799 795 785 783 784 780 778 778 783 777 768 768 763 762 760 760 764 767 770 768 766 758 756 757 752 732 732 735 743 740 738 731 733 736 722 715 714 717 721 725
Wind_Speed
14 13 11 11 11 11 13 11 13 15 17 18 20 23 25 28 31 23 4 5 6 12 13 14 5 10 1 1 1 3 4 2 4 4 5 2 5 4 2 7 4 7 4 17 26
16 15 14 13 11 12 13 14 14 16 18 20 20 22 23 26 27 12 2 5 8 10 8 9 6 10 3 1 1 4 3 8 5 2 3 2 2 5 4 4 6 13 15 17 18
18 17 16 15 14 14 14 15 16 17 19 20 20 21 22 20 6 4 3 8 8 8 8 7 5 1 2 1 2 4 5 4 4 3 2 0 2 2 10 1 9 19 14 8 13
21 20 18 18 16 15 17 18 18 17 19 20 20 20 18 8 5 2 4 12 9 9 10 7 4 3 1 2 3 1 6 5 6 4 3 4 3 4 2 6 13 11 12 8 10
24 22 20 19 19 19 19 19 17 18 18 18 18 17 8 3 9 9 9 7 7 6 5 4 4 4 2 4 5 5 4 3 7 7 5 4 2 5 3 8 17 14 12 12 10
27 25 22 22 21 21 21 21 19 18 15 15 15 11 2 5 5 8 9 7 5 7 3 4 3 4 4 3 2 3 4 5 2 4 3 7 4 4 3 9 12 13 11 11 12
24 28 27 24 22 23 19 14 13 11 12 11 9 5 1 15 13 20 16 13 10 11 3 4 4 2 4 5 4 4 5 3 5 3 4 3 1 7 9 7 12 9 9 8 8
22 16 13 12 11 10 10 9 8 10 8 6 5 2 7 17 16 23 24 22 16 17 13 9 4 3 3 5 7 3 1 3 4 8 5 8 7 9 15 18 10 9 9 9 6
14 16 16 10 10 8 7 6 4 4 2 3 1 1 9 8 9 10 10 9 5 15 13 9 0 3 2 1 5 3 4 6 4 8 5 8 6 9 15 15 15 12 10 9 8
10 11 13 14 9 5 3 4 3 1 5 3 1 2 7 4 5 6 5 8 4 2 1 3 3 2 2 4 11 6 4 4 5 3 5 6 8 7 15 18 20 14 11 11 11
12 14 13 13 13 9 6 1 2 2 5 9 7 4 3 6 4 2 2 6 2 2 6 3 3 8 22 14 2 1 3 5 4 5 4 7 10 15 8 13 12 13 14 13 12
12 14 14 11 8 5 4 3 1 1 6 13 17 14 24 7 4 6 4 6 5 7 5 1 8 14 3 7 8 8 9 10 7 6 4 10 13 13 13 17 22 20 16 15 10
14 15 12 10 8 5 5 4 3 3 4 6 8 8 8 15 12 12 11 7 6 8 8 10 7 5 13 8 5 8 13 11 15 3 5 1 9 5 7 6 10 11 14 15 19
13 16 14 11 5 5 4 10 6 4 3 6 6 8 8 7 7 23 20 8 6 11 7 10 8 13 5 9 10 17 10 13 10 3 6 7 10 8 10 10 15 17 14 16 16
16 20 19 17 4 5 2 13 6 2 2 2 5 5 7 8 3 6 19 3 11 8 7 9 4 8 16 17 13 4 4 10 10 9 6 8 5 6 7 14 14 15 17 17 16
20 23 23 13 5 6 9 11 4 4 7 3 5 5 7 4 3 4 3 3 5 3 7 5 3 5 7 7 15 8 3 1 2 4 8 9 7 18 10 14 6 17 16 18 16
21 26 29 19 5 11 17 4 3 3 4 3 1 5 3 3 3 2 4 10 11 8 16 15 24 13 8 6 4 5 5 2 3 3 13 12 8 29 3 8 11 19 19 17 15
8 30 26 21 10 17 12 3 4 5 5 4 5 6 5 3 4 4 5 6 15 6 3 9 6 20 14 23 10 12 13 6 7 5 7 7 11 9 6 6 4 13 18 16 17
9 12 9 19 17 18 4 3 6 4 2 5 3 2 4 6 2 1 7 5 6 16 5 4 8 3 6 15 18 10 9 17 11 3 1 5 7 5 1 4 4 12 17 19 18
8 6 3 4 18 11 5 8 4 3 5 5 2 5 3 6 2 3 6 2 7 8 16 5 8 5 4 5 16 19 8 6 3 10 17 14 6 8 4 8 4 11 16 15 16
6 3 1 8 11 2 3 5 3 4 2 5 1 3 2 4 5 3 3 4 9 6 5 9 10 20 11 8 15 5 15 8 5 15 17 19 13 8 10 10 14 16 14 16 17
5 2 2 9 5 1 3 3 3 4 1 5 2 2 3 1 3 4 3 2 10 3 3 2 4 12 24 21 15 5 2 15 11 18 6 16 20 4 7 13 11 11 11 11 13
3 2 4 3 4 5 2 2 4 2 3 1 5 5 2 3 3 3 3 2 8 6 4 7 2 5 12 14 15 12 18 16 10 3 19 16 13 5 4 7 8 12 12 12 12
3 2 3 2 1 4 1 4 5 4 5 8 5 4 3 5 7 5 4 4 2 2 3 2 3 4 3 5 6 6 8 12 13 13 14 17 22 2 4 6 7 10 13 12 13
3 3 2 2 3 8 3 2 5 4 5 6 6 12 5 4 6 12 7 4 6 8 3 4 3 4 3 3 4 6 13 14 8 14 16 18 18 4 4 6 5 9 12 14 15
4 3 1 1 1 10 9 5 10 4 3 5 9 8 13 14 18 8 4 3 6 5 3 5 3 2 5 5 5 8 13 13 6 5 4 3 6 8 2 6 7 12 15 16 18
4 1 3 2 4 4 5 7 4 4 7 12 11 9 12 19 15 18 14 14 7 6 7 5 4 2 3 4 3 7 7 9 3 4 2 4 6 11 14 7 12 11 15 19 19
Wind_Direction
242 247 254 267 279 291 300 306 312 319 325 331 338 339 340 335 329 327 297 330 321 328 317 317 341 345 18 19 7 112 68 202 242 189 258 272 129 143 321 112 59 353 88 127 138
244 248 255 261 269 280 290 299 307 313 319 326 334 338 340 337 329 316 25 11 354 2 13 13 1 352 8 295 18 98 138 213 216 205 240 302 108 135 101 103 47 82 84 118 133
247 249 254 259 265 274 283 291 304 307 312 319 327 335 340 338 330 265 346 360 352 350 353 335 323 338 336 314 208 163 191 229 262 204 233 30 80 28 118 310 172 150 143 121 105
247 249 252 257 261 264 274 276 288 296 303 314 324 333 341 348 306 272 299 325 321 325 333 341 350 10 336 293 325 320 234 204 270 183 180 181 119 74 266 183 120 126 122 118 107
247 248 252 256 259 259 262 266 270 284 296 308 320 337 352 357 252 291 312 297 308 333 347 344 8 14 340 303 290 200 275 268 258 239 193 120 160 151 96 109 112 122 119 124 118
244 245 245 250 249 246 246 256 264 273 288 300 316 338 345 291 279 305 309 274 282 316 323 341 335 272 267 265 265 303 282 281 298 255 207 141 223 115 119 125 110 129 134 136 136
244 240 239 244 244 242 237 241 254 270 286 301 312 342 231 248 271 281 278 261 271 283 281 285 294 346 346 304 308 288 308 311 227 211 255 119 222 222 151 134 134 138 132 122 123
214 196 186 191 197 210 216 227 234 241 262 292 315 308 244 274 284 272 269 267 264 260 249 277 265 242 175 309 346 321 216 231 225 178 245 151 240 242 162 147 158 152 146 133 122
135 142 138 143 150 149 164 166 209 225 231 271 290 204 264 293 269 310 274 231 244 228 241 262 11 193 78 89 332 264 234 208 277 196 154 187 242 211 170 170 164 168 157 144 138
183 183 157 152 153 132 101 84 196 208 128 136 132 337 262 260 312 294 290 221 219 88 23 183 60 134 88 146 228 213 225 252 202 217 200 223 248 250 180 177 178 169 159 156 158
184 193 184 182 181 191 207 177 192 178 214 195 178 245 264 257 308 306 187 136 81 120 189 198 161 199 217 208 252 343 238 233 232 236 231 235 244 250 189 183 166 173 172 172 169
177 191 189 194 204 216 209 254 48 6 286 243 259 238 249 249 303 254 188 166 162 218 140 242 235 238 280 202 217 232 246 257 280 242 209 268 254 239 165 189 182 180 179 173 161
192 186 195 189 191 196 206 200 59 92 285 265 209 228 221 190 219 227 170 178 183 192 193 207 201 222 220 231 223 232 233 246 249 336 256 189 275 234 213 160 188 197 186 177 173
202 189 182 172 194 184 212 173 103 56 292 252 219 247 189 170 244 204 194 157 205 205 186 245 214 250 210 234 200 244 217 240 250 220 252 170 271 242 215 213 180 191 183 183 179
206 199 185 178 179 169 139 170 134 78 305 174 160 151 158 179 331 206 200 169 189 178 149 227 191 211 231 228 206 242 238 222 222 234 255 236 277 231 204 214 201 194 190 189 182
204 205 185 186 191 141 148 143 108 61 252 318 148 156 156 257 294 61 143 296 173 179 249 235 241 191 206 235 220 226 230 55 72 131 245 197 195 251 211 218 186 194 193 185 175
201 205 184 180 184 159 151 104 96 178 332 285 240 161 198 181 227 149 139 204 186 177 228 238 252 249 239 289 212 175 140 283 242 196 239 168 194 251 251 218 207 186 186 183 168
154 198 186 189 158 158 140 72 182 221 252 337 352 5 196 148 252 217 134 196 247 308 43 185 281 210 203 213 196 205 205 208 205 198 243 177 232 242 212 211 197 178 182 166 167
146 166 149 199 195 177 127 206 214 203 292 350 345 218 243 227 216 275 214 206 215 223 221 223 265 245 175 209 197 216 201 235 263 111 32 221 288 277 132 252 183 164 164 175 172
131 128 131 182 204 161 191 214 233 332 355 24 24 27 334 334 321 199 176 273 246 214 225 288 291 201 240 201 227 214 184 211 175 234 247 250 255 244 200 229 173 169 185 174 164
107 81 352 168 169 109 224 231 309 263 47 10 145 315 352 331 333 330 336 356 16 338 347 268 239 264 327 216 234 212 229 231 234 210 231 249 252 205 226 189 189 196 181 172 167
84 73 14 172 192 164 199 198 322 293 177 247 327 247 228 28 296 288 243 4 16 340 345 352 288 260 250 252 280 312 296 236 232 233 248 239 252 180 232 200 191 175 162 158 160
87 152 46 180 194 225 257 268 265 265 218 280 251 227 165 207 280 263 5 59 16 23 4 357 283 273 286 273 249 246 258 259 260 248 238 242 254 15 88 134 153 148 150 155 151
91 88 342 30 124 141 190 251 247 191 237 250 230 340 294 243 219 255 214 164 150 176 128 234 261 239 299 353 329 328 354 337 287 249 253 252 247 261 153 149 150 150 153 152 155
53 235 188 191 241 209 191 263 261 251 239 197 207 227 203 266 262 237 239 200 202 183 137 123 290 270 201 308 316 324 322 319 347 285 228 255 253 185 154 120 122 144 149 152 165
131 137 4 189 168 186 201 231 231 227 224 259 265 259 229 238 228 251 319 158 234 168 172 199 206 254 279 225 238 288 280 281 314 312 48 339 273 336 132 140 156 170 171 181 184
138 133 106 261 150 149 217 215 224 154 248 236 252 293 266 245 252 250 249 260 222 181 194 206 187 210 256 222 242 261 234 242 172 237 253 264 238 278 295 244 244 221 190 191 189